RH
10 18 21 20 18 15 11 9 8 6 6 5 4 3 3 2 1 3 -0 30 87 105 98 92 81 80 85 81 76 70 67 60 51 44 36 29 20 13 12 11 12 13 13 15 19 26 30 35 35 29 30 32 35 35 38 50 56 62 71 73 72 80 82 77 79 84 82 85 88 85 81 75 72 72 70 66 66 68 69 66 63 58 52 44 35 28 22 16
4 10 19 22 20 18 14 11 9 8 7 5 6 3 3 3 -0 5 -1 7 54 84 85 97 96 84 84 85 82 77 69 64 56 48 42 35 26 18 14 11 11 12 12 14 19 25 29 33 32 28 26 25 29 31 34 43 50 55 59 65 71 77 79 75 74 73 73 84 88 86 86 81 74 73 73 70 68 69 70 68 65 62 59 54 46 36 27 21
2 4 11 20 21 20 18 14 11 9 8 7 6 5 4 4 1 2 3 -0 15 35 45 75 99 94 91 87 88 89 78 69 59 49 47 42 33 25 18 14 12 11 11 13 16 20 24 27 25 25 25 22 24 25 30 36 43 47 46 61 72 71 75 75 72 66 66 77 85 87 86 85 77 73 75 72 71 70 70 69 67 64 62 60 56 48 37 26
3 2 4 12 20 22 20 17 15 11 10 8 6 7 5 4 4 1 3 2 1 9 15 45 88 101 99 96 95 96 92 80 58 48 55 49 39 32 23 18 14 12 11 11 13 15 18 21 21 26 25 20 19 19 26 33 38 37 37 50 55 61 74 73 69 68 67 71 79 86 86 86 81 74 74 75 74 70 69 70 68 67 65 63 60 57 50 38
5 4 2 6 13 20 21 19 17 14 11 10 8 7 7 4 5 3 2 2 1 5 5 23 74 103 98 100 101 96 103 88 54 52 65 57 46 38 29 23 17 14 12 10 12 13 14 16 18 24 22 20 19 16 22 28 32 31 33 39 38 53 67 64 66 68 68 69 73 81 84 84 83 79 74 74 74 71 72 71 68 68 66 65 63 61 59 51
5 5 3 2 6 14 20 21 19 17 14 11 11 8 8 6 5 5 3 3 1 3 5 6 54 105 101 98 101 96 104 84 53 62 73 64 56 45 35 30 22 17 14 12 12 11 13 13 16 19 18 22 18 16 21 22 27 31 33 35 33 39 40 43 56 59 60 64 65 73 80 82 82 81 74 73 73 69 73 72 69 70 67 66 65 63 62 59
5 5 6 4 3 7 15 21 20 19 17 13 13 10 8 7 5 6 3 5 2 1 6 -1 30 84 95 99 101 98 105 83 59 74 83 76 67 51 41 35 27 22 17 15 13 11 13 12 14 17 17 22 19 21 25 20 24 29 28 30 30 29 24 27 38 45 49 52 55 62 72 78 78 79 75 75 74 65 69 73 71 72 69 67 65 64 64 61
6 4 5 5 3 4 7 16 19 20 20 16 14 12 10 9 7 8 4 5 4 2 4 -0 11 38 67 95 101 98 101 86 69 75 89 89 76 60 49 41 33 28 23 18 16 12 13 12 12 16 18 20 21 28 30 20 22 25 24 26 28 28 22 19 22 29 37 40 44 51 60 69 73 77 76 78 75 64 67 73 73 71 69 67 66 65 65 63
6 5 5 5 5 4 3 8 15 19 20 19 17 14 12 11 8 8 6 6 4 4 3 2 5 11 38 76 101 105 86 84 91 85 94 97 88 74 57 51 42 34 29 22 20 16 14 13 12 15 18 25 29 30 28 23 22 22 23 23 27 30 21 15 15 16 27 34 36 42 49 59 68 72 75 80 75 65 68 72 70 68 68 67 67 67 66 65
7 6 5 6 5 5 4 3 8 15 18 20 19 16 14 12 11 9 8 7 5 5 4 3 3 5 19 44 85 99 66 73 97 89 96 101 97 89 68 60 52 41 35 27 23 20 17 14 14 15 18 38 49 37 29 28 26 19 19 18 21 27 20 15 15 9 18 29 30 34 39 46 58 66 72 78 74 67 69 71 68 65 66 67 67 68 67 66
7 7 6 6 5 6 5 4 4 8 14 18 19 19 17 14 12 11 9 8 7 6 5 5 3 3 8 15 38 51 35 51 71 72 93 102 99 97 81 68 60 52 42 33 28 23 20 17 16 16 14 28 43 39 30 26 26 21 18 17 17 21 18 14 14 9 11 18 23 27 31 34 43 56 70 77 75 71 69 69 67 65 64 64 64 66 67 67
8 7 7 6 6 6 5 5 4 4 8 13 17 19 18 18 15 12 11 9 8 7 7 6 5 3 4 5 7 10 13 33 51 61 84 99 101 100 92 79 66 60 50 39 33 26 24 20 17 18 14 20 33 39 31 22 27 25 19 18 18 17 13 11 12 10 9 10 15 21 25 24 28 46 67 77 76 69 67 70 68 66 63 61 61 62 64 65
12 8 7 7 6 6 6 6 5 4 5 7 13 16 17 22 20 15 12 12 10 9 8 7 7 5 5 5 3 3 5 20 42 54 67 85 97 100 100 92 75 66 57 46 37 29 25 22 20 18 16 21 32 36 31 29 29 22 18 18 16 12 9 9 9 9 9 7 10 15 17 19 23 40 61 71 71 63 62 67 67 66 63 60 60 60 60 60
13 9 6 7 7 6 6 6 6 5 4 4 7 11 15 19 24 21 14 14 13 10 9 8 10 10 9 7 3 3 3 14 36 50 63 78 87 94 100 99 88 73 63 54 44 34 28 24 22 20 18 18 21 22 27 37 32 20 20 19 14 11 8 9 8 7 9 7 8 9 9 13 21 35 52 64 67 62 59 61 61 64 63 60 61 60 57 55
20 14 9 6 6 7 7 5 6 6 5 5 3 7 13 15 23 26 17 13 14 15 13 10 12 12 14 16 9 5 3 11 30 46 65 79 81 85 91 96 95 80 67 61 52 40 32 27 23 21 20 18 19 19 21 29 32 28 24 17 14 13 9 9 8 7 8 7 8 8 5 7 15 27 41 58 68 62 55 55 56 59 60 57 58 58 54 52
39 25 19 14 9 6 7 6 5 6 5 6 3 4 10 11 16 24 22 15 14 23 25 19 20 17 17 24 22 15 7 6 22 42 58 70 78 80 82 91 95 86 74 65 56 45 36 32 28 26 23 20 22 28 27 20 21 25 21 14 15 14 9 9 8 7 8 7 7 8 7 5 9 19 26 41 59 56 46 47 49 51 53 52 52 52 51 50
63 44 34 25 18 11 7 6 5 6 5 6 5 4 7 7 9 18 23 20 15 22 30 33 38 34 24 22 27 26 15 5 10 26 40 55 79 91 87 90 94 92 85 73 62 51 44 40 36 32 27 23 21 30 38 26 14 16 14 12 14 13 10 10 8 8 8 7 7 7 7 6 6 11 17 25 39 45 40 39 41 43 45 46 45 44 46 48
78 64 50 37 27 18 11 7 5 6 5 5 5 5 5 7 13 16 19 23 18 18 32 48 60 59 37 17 21 30 26 16 7 15 27 33 59 88 96 95 96 96 92 84 74 62 55 51 45 37 32 29 24 25 32 25 17 15 13 11 12 11 10 10 9 8 8 7 8 7 6 7 6 6 11 15 21 29 32 33 35 36 39 40 39 38 41 45
79 72 63 53 40 28 18 9 6 5 5 5 5 6 5 10 23 19 18 31 29 25 35 49 62 64 43 20 18 27 32 27 15 20 33 28 38 71 93 99 100 98 96 92 83 73 66 59 51 44 42 41 36 32 29 26 23 18 15 14 12 11 10 10 10 8 9 8 7 8 6 6 7 6 7 9 12 17 21 24 27 31 33 34 33 35 36 39
78 74 70 66 55 41 26 14 8 5 6 6 3 7 6 11 29 25 23 43 43 35 39 37 45 54 43 29 22 23 35 40 29 25 36 41 50 74 92 97 100 100 99 97 90 82 75 68 60 55 55 51 45 41 35 31 30 25 22 18 13 12 11 11 12 9 9 10 8 8 8 7 7 7 7 7 8 10 13 15 18 23 26 26 27 30 32 32
75 74 71 71 67 55 36 21 13 7 4 6 6 13 11 9 29 31 26 47 48 41 52 42 35 48 49 43 34 23 28 46 49 31 25 39 56 71 82 90 97 100 99 98 97 91 83 78 70 63 61 58 53 48 42 36 33 32 30 25 21 18 14 11 11 11 10 10 10 9 8 7 7 7 7 7 7 7 8 10 12 15 18 20 22 25 27 26
72 70 68 71 73 64 48 29 17 12 7 9 13 21 25 19 28 34 26 37 41 40 57 50 37 46 50 47 45 33 23 40 63 49 21 22 41 57 68 78 88 91 93 99 101 98 94 86 73 65 64 62 59 53 49 44 39 36 32 30 33 33 33 25 13 10 11 10 10 10 9 8 7 7 6 7 7 6 7 7 9 10 11 15 18 21 22 20
69 67 65 67 70 67 58 40 24 21 14 13 14 12 22 25 26 39 36 27 27 29 39 43 48 58 56 48 43 40 30 31 56 62 36 16 23 40 56 74 84 82 86 99 102 98 92 77 63 68 73 67 62 58 54 49 44 42 35 29 32 37 43 38 24 14 11 11 11 10 10 9 8 8 7 7 7 6 6 7 8 8 8 10 14 17 17 17
65 63 62 62 66 64 61 49 33 29 20 15 19 10 12 23 25 38 43 30 24 29 30 29 43 58 64 59 46 42 40 32 41 56 50 28 15 21 39 67 88 89 90 98 100 97 87 71 65 75 78 69 64 62 58 52 48 47 43 36 34 37 39 36 29 20 14 12 12 11 11 10 9 8 7 7 7 7 6 6 7 7 8 9 11 13 14 15
65 62 60 60 63 60 58 51 38 38 31 18 21 16 9 25 41 45 46 35 23 34 44 35 40 56 66 68 63 61 56 44 42 47 51 41 22 20 36 61 86 96 97 99 101 99 88 81 86 83 75 71 69 66 61 55 53 52 50 45 40 40 39 34 29 23 19 16 13 13 12 10 10 9 8 8 7 7 7 7 7 7 7 8 9 11 13 13
67 64 61 61 62 58 54 44 34 44 46 28 23 20 7 21 48 53 52 44 22 27 48 51 56 64 66 65 70 81 75 62 58 50 51 49 31 27 40 61 85 91 93 97 99 97 87 86 94 88 78 76 74 71 66 60 57 55 54 52 46 42 40 36 31 27 24 19 16 16 13 11 11 10 9 9 8 7 7 7 6 7 7 7 8 10 11 12
63 62 61 62 62 56 48 38 35 49 51 34 29 28 17 24 46 51 55 54 31 22 36 52 63 59 56 59 64 81 82 70 67 56 53 56 40 31 37 53 79 89 89 96 101 95 84 84 89 87 87 86 80 74 68 63 61 58 57 54 49 44 39 37 35 31 27 22 19 19 17 15 12 11 11 10 9 8 8 8 7 7 7 6 7 9 10 11
55 57 57 59 60 54 46 43 45 48 46 41 37 31 26 38 53 53 62 67 40 18 24 45 60 54 57 63 60 73 74 64 68 58 54 61 48 39 37 38 61 88 95 97 101 95 85 83 79 75 83 87 82 78 74 70 64 61 59 56 56 50 40 38 35 29 27 23 22 23 22 20 14 12 12 10 10 9 8 9 8 7 8 7 7 7 9 10
49 51 50 51 56 55 47 48 51 46 53 65 53 30 27 46 64 62 74 83 52 20 21 40 56 57 66 71 62 64 60 56 68 61 57 65 55 48 45 34 45 80 100 100 98 95 92 90 81 77 85 87 85 87 86 82 73 66 58 52 59 58 48 43 38 36 37 27 24 29 28 25 20 14 15 13 11 11 10 9 9 8 9 8 8 7 7 8
44 44 45 47 50 52 46 46 53 50 60 75 58 38 37 49 70 81 92 96 66 33 24 35 49 48 56 70 76 77 59 49 62 61 59 66 60 52 48 45 55 78 97 102 99 98 96 93 89 92 98 95 95 98 93 89 85 77 65 54 53 54 51 48 45 57 65 44 32 37 33 30 25 17 18 17 12 11 11 10 10 9 9 9 9 8 8 8
41 40 41 44 44 49 47 45 54 53 58 69 56 48 60 64 73 89 100 96 75 50 33 40 57 55 53 59 68 78 66 56 71 73 66 67 65 59 51 54 72 90 100 100 98 99 99 99 98 98 101 99 100 102 97 96 95 88 81 73 62 53 52 51 49 61 70 54 40 41 39 36 31 20 18 19 15 13 12 12 11 10 11 11 10 10 9 8
41 40 39 41 41 46 49 49 56 54 57 69 59 50 72 87 80 74 80 84 78 60 42 56 81 80 79 77 70 72 62 56 73 81 75 69 63 60 55 53 64 83 99 100 98 100 98 100 102 98 100 100 98 100 101 100 100 99 99 94 84 75 69 61 54 54 57 52 44 43 42 40 35 25 20 19 17 16 15 15 14 12 12 12 11 12 11 10
40 44 42 40 38 42 49 55 63 60 56 69 72 69 85 97 82 59 53 66 79 64 40 58 89 91 93 99 95 90 79 67 70 74 77 75 65 59 60 59 58 67 82 88 93 100 98 97 101 101 100 99 98 100 101 97 94 96 98 94 90 88 84 76 67 60 56 53 49 47 46 45 41 31 24 21 20 20 20 19 18 16 15 13 13 13 12 12
41 46 45 41 38 40 49 57 65 66 60 64 75 89 100 96 77 56 44 54 74 67 38 44 82 99 98 101 100 99 98 91 78 70 72 74 71 67 63 60 60 68 78 82 83 89 95 95 94 94 91 94 98 95 91 90 90 91 90 88 86 82 80 78 73 69 64 60 57 53 50 49 44 33 27 27 26 26 26 25 23 21 20 18 16 14 14 13
45 47 45 42 40 41 47 52 60 65 63 64 75 92 103 89 64 46 39 45 61 61 41 41 74 101 102 100 101 98 97 93 80 70 67 65 66 68 68 59 54 59 68 75 76 73 79 82 77 78 80 86 93 90 88 94 97 97 97 98 94 84 80 78 70 67 66 63 62 58 55 53 44 34 32 32 31 31 31 30 29 28 26 25 22 19 17 15
39 39 39 39 39 41 45 47 54 62 64 70 81 90 90 76 54 40 35 35 46 53 46 43 68 97 103 100 101 100 99 97 90 85 78 69 62 63 69 65 60 61 59 61 66 63 68 74 70 74 81 84 88 88 90 94 92 92 94 96 92 84 86 85 72 65 63 61 61 60 57 54 46 38 35 33 31 32 33 33 33 34 33 31 29 26 24 21
30 32 33 34 36 41 46 48 53 62 70 78 88 87 75 59 49 49 48 39 40 52 50 42 60 92 102 101 102 100 101 101 99 100 95 85 75 69 70 64 59 63 65 67 65 55 61 73 72 76 84 85 90 93 93 90 89 94 95 92 90 91 97 96 85 76 68 63 64 62 58 55 51 42 36 38 37 33 34 35 37 39 39 37 35 34 31 29
27 29 30 30 35 40 46 54 56 60 70 81 89 90 76 57 48 52 58 50 43 53 58 48 55 83 96 96 100 100 100 101 101 101 101 96 85 75 74 66 51 46 57 78 84 67 61 68 68 73 80 80 85 95 101 97 96 100 99 96 97 100 101 97 93 88 80 73 69 62 56 55 53 44 39 42 41 36 37 38 39 41 43 42 41 39 38 36
28 29 28 27 33 41 49 58 58 61 76 86 88 89 82 69 58 51 52 55 49 49 58 57 57 74 89 90 92 96 95 95 94 94 98 100 91 76 71 70 60 44 41 60 79 75 65 65 63 60 65 71 77 89 100 98 93 95 98 101 102 101 100 97 95 92 88 84 75 63 57 56 51 43 41 44 41 39 41 42 43 44 44 46 45 43 43 42
37 35 33 30 32 41 55 67 68 68 81 90 87 82 76 71 65 53 46 54 55 44 51 68 72 73 78 82 87 92 93 88 86 87 87 87 89 83 76 78 75 58 41 41 55 63 66 74 76 68 69 81 89 93 94 87 82 83 87 91 92 94 94 93 94 96 97 96 88 77 66 57 52 45 42 44 43 42 45 45 46 47 47 48 48 47 47 46
45 44 42 38 35 42 60 81 88 74 69 81 88 80 70 67 67 64 59 63 61 49 46 61 78 80 74 74 82 89 95 96 94 95 89 79 78 81 82 87 85 75 64 54 56 69 80 89 94 90 89 95 96 94 93 91 88 86 86 86 85 88 89 86 85 88 95 97 94 89 76 58 57 54 45 44 46 47 50 49 48 48 48 49 50 51 51 50
48 52 48 41 41 50 63 80 91 78 63 73 87 84 73 66 63 63 70 73 66 58 55 56 70 88 87 78 83 91 97 101 101 101 99 86 77 76 77 81 82 80 78 67 66 84 94 93 98 99 96 96 93 90 91 93 90 87 89 91 90 93 95 94 90 85 89 93 89 90 84 63 54 52 43 41 43 43 46 45 46 47 47 48 50 51 54 54
54 59 56 50 52 65 71 72 79 80 71 71 83 84 73 70 69 61 60 68 61 54 67 71 65 76 89 87 93 101 100 101 101 100 97 89 84 81 73 72 76 78 79 73 76 94 101 96 99 100 96 96 94 88 86 89 92 90 86 82 81 84 86 93 99 95 96 99 94 97 95 71 55 51 45 42 41 41 45 47 50 54 53 52 52 52 55 57
65 67 62 56 56 67 76 71 69 77 73 67 79 85 73 76 91 83 66 67 61 45 57 76 64 56 72 87 95 100 99 99 100 95 90 87 90 86 73 67 68 70 74 72 70 83 96 99 100 99 99 99 98 95 94 95 97 93 85 81 78 78 82 93 100 99 100 100 97 103 96 70 57 54 46 42 41 41 47 50 51 54 55 55 55 53 55 58
79 74 65 64 63 63 70 67 59 67 73 69 75 79 71 73 90 96 88 83 73 49 44 63 66 54 57 75 91 98 100 101 100 96 90 86 85 80 71 68 65 61 66 71 71 79 92 99 99 98 101 101 97 97 94 90 86 80 78 85 85 82 88 96 96 97 102 99 98 101 89 65 58 57 48 46 50 51 53 54 51 49 49 52 55 55 55 57
91 88 74 77 79 66 67 72 62 63 75 77 77 80 78 76 78 87 95 94 85 66 46 47 63 66 56 59 78 95 102 101 99 101 98 92 86 76 68 69 68 62 60 66 76 87 95 101 102 101 102 100 94 91 90 90 92 87 83 87 88 86 92 96 95 97 100 99 99 98 88 74 64 58 53 54 61 68 67 61 56 50 44 45 50 54 57 58
89 90 76 79 85 69 63 74 71 65 71 74 79 87 89 86 84 84 85 86 85 81 67 51 55 71 68 57 62 80 98 103 99 100 101 98 93 84 79 79 77 73 69 66 71 75 78 85 92 95 99 100 97 96 95 95 98 97 93 92 92 94 98 101 101 98 97 100 101 93 91 86 67 55 64 70 68 74 72 65 65 64 57 54 58 65 74 77
78 81 75 73 79 71 58 60 64 63 66 70 77 88 91 90 90 85 78 75 72 79 88 74 53 54 60 59 59 67 86 101 100 99 102 100 92 86 90 96 95 92 86 78 77 76 73 74 75 78 83 86 91 94 89 83 82 86 89 89 90 93 98 100 97 93 94 100 100 94 95 92 69 61 84 93 77 67 65 65 73 80 80 81 83 85 92 93
75 77 80 69 61 63 59 53 60 67 67 69 73 78 85 89 86 81 79 81 73 72 91 94 76 61 53 53 62 71 84 99 98 94 95 95 89 84 90 96 98 99 95 88 85 82 79 74 68 67 67 66 74 82 77 70 70 75 81 84 85 86 90 94 91 91 98 102 99 97 98 92 76 74 91 97 82 68 62 64 70 77 83 90 93 93 91 90
76 77 83 68 46 57 74 66 62 69 71 72 71 70 78 87 85 76 78 88 87 80 87 93 88 79 64 51 51 62 79 92 93 89 91 94 93 89 86 83 82 88 94 96 96 91 86 77 63 58 58 51 53 62 62 61 65 72 82 91 95 95 94 91 86 86 96 99 96 98 99 90 79 80 88 87 79 69 60 57 60 64 72 79 84 87 84 79
79 78 82 74 51 61 94 94 77 75 77 73 69 70 79 85 84 79 76 82 90 87 83 82 80 81 81 69 49 43 60 79 87 92 96 98 98 95 91 83 75 80 88 94 98 97 93 84 70 68 71 56 41 41 42 43 50 60 72 83 90 92 88 80 71 68 76 84 86 91 94 84 72 76 80 74 67 63 56 51 51 54 67 78 79 78 77 73
81 77 76 75 60 58 83 99 96 89 82 72 63 65 74 77 82 89 83 79 88 92 85 84 88 90 95 90 61 36 42 59 75 90 97 99 99 96 97 96 88 88 92 94 98 99 95 90 81 83 86 67 44 37 34 31 32 35 42 52 62 66 64 60 58 58 60 62 62 63 65 63 62 69 72 62 56 57 55 55 55 50 60 80 84 79 79 78
Wind_Speed
100 102 101 100 98 97 96 94 92 90 88 86 84 83 82 82 80 79 78 75 72 68 66 66 70 71 70 70 69 68 68 69 68 67 66 61 57 55 54 54 52 51 51 48 46 44 43 42 40 37 36 35 34 33 33 33 33 32 29 28 28 28 29 30 29 29 27 23 22 22 19 17 15 14 14 13 14 14 14 13 12 11 10 9 7 6 6 5
93 100 103 102 100 98 98 97 95 92 90 88 86 84 83 82 82 80 79 78 77 76 71 66 66 69 70 70 70 69 70 71 71 70 67 61 59 58 57 56 55 53 52 50 48 46 45 44 43 40 39 38 36 34 33 34 33 33 32 28 26 27 29 30 30 30 27 25 24 23 21 19 17 15 14 14 14 15 15 14 13 12 12 10 8 7 7 6
86 93 101 103 102 101 99 98 96 95 92 90 88 86 84 82 83 82 81 80 80 80 78 72 67 64 65 68 69 70 71 73 74 72 67 62 60 59 59 58 56 55 54 52 50 48 47 47 46 43 42 40 38 36 35 34 33 34 33 30 28 29 29 29 30 28 26 26 26 25 23 21 19 17 16 15 14 15 15 15 14 13 12 12 10 9 8 7
83 86 94 102 104 103 101 99 98 96 94 92 89 87 86 84 83 83 83 81 80 79 78 75 70 64 61 62 65 68 70 73 76 73 66 63 61 60 60 59 57 56 55 54 52 50 49 48 47 45 44 43 40 38 36 35 34 34 33 32 31 29 29 30 30 28 28 28 28 27 25 23 21 19 18 16 16 16 15 16 15 14 13 13 12 11 9 8
82 83 87 95 103 104 103 100 98 97 96 93 91 89 87 85 84 83 83 82 81 78 77 75 72 67 64 62 62 65 70 75 77 71 66 64 62 61 60 60 59 57 58 56 54 53 51 50 48 48 47 45 43 40 38 37 35 34 32 34 33 30 32 32 30 29 29 29 29 30 29 26 23 22 20 18 18 16 15 17 16 15 14 13 13 12 12 10
81 82 83 88 97 104 104 102 100 98 97 94 93 91 89 87 85 84 84 83 82 79 78 77 75 72 67 65 64 65 69 76 77 69 66 65 62 62 62 61 61 59 60 58 56 55 53 53 51 51 49 46 46 41 40 39 36 35 34 35 34 34 35 32 31 31 30 30 31 31 30 29 26 25 22 20 20 18 16 17 17 16 15 14 14 13 13 13
81 81 82 83 89 98 103 102 101 99 97 95 94 92 91 89 87 85 84 83 83 81 80 78 78 78 73 69 67 66 68 74 78 70 65 65 62 63 63 62 62 61 61 59 58 57 55 55 52 52 49 48 47 42 42 41 37 37 37 36 35 35 35 32 32 32 31 31 32 32 32 31 29 27 24 21 22 20 17 17 16 16 17 16 15 14 14 14
80 81 82 82 83 89 97 101 102 100 98 96 95 93 92 91 89 87 85 84 83 82 81 79 80 81 80 78 72 70 72 72 76 74 66 64 63 63 64 64 64 62 62 61 60 58 56 56 54 52 50 49 47 44 45 42 38 40 38 37 35 35 36 33 33 32 32 32 32 34 34 34 32 28 25 22 24 22 17 18 17 17 17 17 16 16 16 15
80 81 81 81 81 83 89 96 101 100 99 97 96 94 92 92 90 88 85 84 83 82 82 81 80 80 82 84 77 75 80 73 72 74 65 61 61 63 64 65 65 64 63 62 61 60 59 58 55 54 51 49 48 48 48 43 41 42 40 39 37 37 38 35 34 33 31 32 32 34 36 36 34 30 26 24 26 23 18 20 20 19 18 18 17 16 16 16
78 79 80 80 80 80 82 89 96 99 99 98 96 94 93 92 91 89 87 84 83 83 82 82 82 81 82 87 84 82 86 78 72 73 65 59 59 62 64 65 65 65 64 63 62 61 60 59 56 55 53 49 49 49 48 45 45 44 42 42 39 39 40 37 36 34 31 32 33 33 36 37 36 32 28 27 28 24 21 22 22 21 19 18 17 17 17 17
76 78 79 79 79 79 79 82 89 95 98 98 96 94 92 92 91 89 88 85 84 83 83 82 82 83 83 86 89 87 86 79 75 75 69 61 59 60 63 65 66 66 65 64 63 62 60 58 57 58 56 52 50 49 49 48 47 45 43 43 41 41 42 39 38 36 33 34 34 33 34 35 36 33 28 28 30 27 24 23 23 23 22 21 19 18 17 17
73 75 77 78 78 78 77 78 82 88 94 96 95 94 93 91 90 90 88 86 85 83 83 82 82 84 84 86 87 86 82 75 73 75 72 67 62 60 62 66 68 67 67 66 64 62 60 59 59 59 57 54 52 50 51 49 48 48 46 45 44 44 44 42 41 39 36 35 34 33 35 34 32 30 30 31 32 31 28 25 25 24 24 24 22 20 19 19
71 73 75 77 77 77 77 76 77 81 87 92 94 94 94 90 87 88 88 86 85 84 82 81 81 82 84 87 84 81 78 71 70 73 73 72 69 65 64 66 69 69 69 67 65 63 61 61 61 59 58 56 54 54 53 49 50 51 48 47 47 47 47 44 43 42 39 38 34 35 37 33 26 27 33 34 34 33 30 28 27 27 26 26 25 23 21 21
68 70 72 74 76 76 76 76 75 77 80 86 90 91 92 91 87 85 85 84 83 82 81 80 79 79 82 84 82 79 76 71 71 73 73 73 71 70 69 67 68 70 70 69 68 66 65 65 64 62 62 61 59 58 55 52 53 53 50 50 51 51 48 45 47 45 42 41 36 37 39 34 27 29 33 32 32 33 31 30 31 30 29 28 27 25 24 22
66 67 70 72 74 75 76 76 75 74 76 79 84 86 88 90 87 84 84 83 81 79 79 80 78 77 78 79 80 79 77 74 73 74 74 72 69 70 71 70 69 70 70 70 69 68 68 67 66 65 64 63 61 60 58 56 55 53 53 54 53 52 50 49 50 46 44 45 40 40 41 35 29 30 32 30 30 33 32 32 33 32 32 30 29 27 25 24
62 65 67 69 71 73 75 76 75 74 73 75 79 81 83 87 87 84 84 83 79 76 75 77 77 75 76 76 77 78 78 77 76 76 75 72 68 67 69 70 70 70 71 69 68 68 69 68 68 67 66 64 62 60 60 59 58 56 55 56 55 53 52 52 53 48 45 48 45 42 43 38 31 30 32 30 30 35 34 33 34 34 33 32 30 27 26 25
55 61 63 66 68 71 73 76 76 74 72 72 74 77 79 82 83 84 84 82 80 76 72 71 71 73 76 78 77 76 78 79 79 78 75 73 69 65 66 70 70 71 72 71 70 70 71 71 71 70 68 66 65 62 62 63 63 61 59 59 57 54 54 54 56 53 48 49 47 43 44 41 34 31 32 32 33 36 36 34 35 35 33 32 30 28 26 26
49 54 58 61 65 68 71 74 76 74 72 71 71 73 75 75 77 81 84 82 79 77 73 69 68 71 77 80 77 74 75 78 79 77 75 76 72 66 65 66 69 72 74 73 73 73 73 73 72 71 70 69 69 67 68 68 66 64 61 61 59 56 56 56 59 57 48 47 48 45 45 45 39 33 33 34 35 37 38 36 37 35 32 31 30 29 28 27
45 48 51 55 59 64 68 72 75 75 73 71 70 71 71 71 73 76 79 81 80 79 79 76 72 72 75 76 76 74 71 74 78 77 76 76 74 69 66 65 66 70 74 76 75 75 74 75 75 75 74 73 72 71 71 67 64 63 61 61 59 57 59 57 58 59 49 44 48 48 48 48 45 37 34 35 37 38 39 38 37 34 31 31 30 29 29 27
42 43 46 49 53 58 64 70 73 75 74 72 70 70 72 73 74 75 77 79 81 80 80 81 77 72 71 72 76 76 72 71 76 79 76 74 73 69 66 66 64 65 71 76 76 76 75 77 78 78 75 73 72 70 69 65 63 63 63 64 62 60 62 59 58 60 52 46 48 50 51 51 50 43 37 37 38 38 38 37 35 32 30 31 31 29 28 27
40 40 42 43 47 52 59 65 70 73 75 73 71 71 74 74 74 76 77 77 79 77 75 78 78 71 67 68 74 79 77 72 73 78 79 74 73 70 67 66 66 67 67 69 73 76 76 77 78 76 72 70 69 68 67 66 66 67 65 65 64 62 63 62 60 61 55 50 50 51 53 54 54 50 41 37 40 39 38 36 33 30 30 31 30 28 28 28
39 39 39 40 43 47 53 60 66 70 74 74 73 73 71 70 71 71 72 76 77 76 73 73 75 72 68 67 70 75 78 73 68 74 80 78 74 72 69 67 68 69 66 64 70 75 77 77 75 72 70 69 68 68 67 67 68 69 66 66 65 61 61 62 62 62 57 53 53 54 56 56 56 55 47 40 40 42 38 33 31 30 30 30 29 28 29 29
37 37 37 39 41 44 49 55 62 67 71 73 74 74 70 68 70 66 68 75 76 77 78 74 72 71 70 71 70 70 75 76 69 68 75 80 77 72 70 68 67 68 68 68 69 71 75 73 68 67 68 70 71 70 69 69 70 71 68 69 68 63 62 62 62 62 59 55 56 58 59 59 57 57 53 45 41 42 40 34 32 32 32 30 28 28 30 29
36 36 36 38 39 43 46 51 59 63 67 70 71 72 70 67 67 65 66 72 73 75 77 77 75 72 70 72 71 69 71 75 73 69 70 76 78 74 71 67 64 66 70 71 67 66 65 59 60 68 69 71 73 72 72 72 72 73 71 70 69 66 65 64 63 64 63 58 58 59 61 62 59 57 56 50 44 41 41 39 35 34 32 31 29 29 30 29
35 35 36 36 38 40 43 50 57 58 61 68 69 71 72 67 64 63 65 70 73 74 76 78 79 76 72 70 69 67 68 73 74 72 69 72 75 75 72 67 64 65 68 70 67 64 58 51 58 67 68 70 73 74 74 74 73 74 73 70 69 67 66 66 66 67 65 61 61 61 64 66 61 57 56 53 49 43 42 43 39 35 34 33 31 30 30 30
34 35 35 36 36 38 44 50 54 54 58 64 66 69 72 69 64 64 66 71 76 78 79 79 79 77 74 72 68 64 66 70 72 71 70 73 75 74 73 70 65 64 64 65 66 68 62 56 58 63 66 70 73 76 77 75 74 75 73 70 68 67 67 68 67 68 67 64 66 65 65 68 64 58 56 55 53 47 45 46 42 38 37 35 32 31 31 31
33 34 34 35 36 39 44 46 49 54 57 60 63 66 69 69 65 65 67 74 80 80 80 80 79 78 75 74 72 67 67 67 67 69 70 73 76 76 76 75 68 63 62 62 66 69 65 61 61 62 66 72 73 75 76 75 74 75 74 72 70 68 68 69 69 70 69 67 69 68 64 68 67 60 55 55 55 51 48 48 45 41 40 37 34 32 32 33
32 33 34 35 36 38 41 41 45 52 53 56 61 64 68 67 64 66 69 76 82 78 78 80 79 77 74 75 75 72 70 64 62 68 69 70 75 77 78 78 72 62 58 63 67 66 61 60 61 59 63 71 73 73 73 74 74 75 75 73 71 70 70 71 72 71 71 70 70 69 65 67 69 63 58 57 57 54 51 50 48 45 42 40 36 34 35 35
32 33 34 35 36 38 40 42 44 47 48 52 57 62 67 65 64 68 70 75 79 75 76 79 78 78 76 74 75 75 73 67 64 65 66 70 75 77 77 77 75 66 57 58 62 61 59 57 56 59 62 67 69 71 72 72 73 74 75 73 70 69 70 71 71 69 67 70 72 69 65 66 68 66 62 61 59 56 53 52 51 46 43 41 38 37 38 37
32 33 34 36 38 38 41 43 43 45 48 51 56 61 66 68 70 72 68 71 76 74 75 78 78 80 79 74 73 72 72 71 67 63 67 73 73 74 75 73 75 74 64 57 56 58 59 57 56 59 63 64 65 69 71 69 70 73 73 73 71 71 70 70 70 65 60 67 73 68 64 66 70 69 66 65 64 59 56 55 53 47 43 42 40 38 38 38
32 33 36 37 36 37 41 43 43 45 49 51 56 62 67 70 75 77 70 67 73 76 76 78 77 78 78 77 75 72 71 70 67 66 71 74 73 75 76 74 76 78 72 63 57 56 57 57 58 57 57 60 64 67 70 69 68 68 68 69 71 71 71 71 71 67 63 69 72 68 66 69 73 73 70 69 67 63 58 55 53 49 44 43 41 39 39 39
33 34 36 37 37 38 39 40 41 46 49 50 56 65 70 72 77 83 77 66 68 77 79 78 76 74 71 73 75 74 72 72 68 67 72 74 76 78 77 77 79 79 80 74 63 58 56 55 54 52 52 54 59 64 68 70 68 65 64 63 65 68 70 73 74 73 73 74 72 69 71 75 77 76 73 71 70 66 61 57 53 50 46 44 42 41 41 42
33 33 36 38 38 37 38 40 42 46 48 51 58 65 69 74 79 83 82 71 67 73 78 76 73 70 67 67 71 72 71 73 69 66 69 71 76 79 78 78 78 78 81 81 75 67 61 58 56 54 52 51 55 61 64 67 67 69 67 64 64 66 69 73 75 77 78 76 73 72 74 78 80 77 75 74 71 67 62 59 56 51 47 45 43 42 43 43
35 34 35 37 38 38 40 42 43 45 48 53 60 65 68 75 79 79 81 79 70 68 74 76 73 70 65 62 67 71 69 71 71 67 68 70 75 80 81 81 80 77 77 78 80 79 73 69 66 60 54 51 53 55 54 55 59 66 68 67 69 70 71 74 74 75 76 74 73 74 77 82 81 76 75 74 71 69 66 62 59 55 51 47 46 45 44 44
35 34 34 36 39 41 41 43 43 45 50 55 62 68 71 75 77 78 81 80 73 69 72 77 76 71 64 58 61 68 69 69 71 71 70 71 75 79 80 81 81 80 79 77 78 79 78 75 70 65 61 58 57 55 53 55 59 62 66 70 73 71 72 74 74 73 74 73 74 74 78 81 77 73 74 73 72 70 68 65 62 59 55 52 51 49 48 47
35 34 35 37 40 40 41 42 44 47 52 56 62 69 73 74 75 77 79 77 74 73 74 79 80 73 65 57 57 64 69 68 68 71 73 73 74 76 78 79 78 77 79 80 79 78 76 72 67 64 63 61 59 57 57 59 58 58 64 68 68 68 71 74 75 75 75 75 76 76 78 78 75 73 74 74 74 72 70 69 66 62 60 58 55 53 52 51
33 34 36 38 40 40 41 44 46 48 52 56 60 64 69 74 76 75 75 76 76 74 74 80 83 76 65 57 54 61 66 66 65 68 71 74 76 77 79 80 80 77 71 71 77 80 76 71 65 61 58 55 52 52 54 57 56 60 64 62 59 64 71 74 74 75 75 77 76 74 75 75 73 74 74 73 74 73 72 70 68 65 61 59 58 57 56 55
33 36 38 40 41 40 41 44 46 49 52 57 58 59 65 73 78 76 73 75 76 73 71 78 83 77 66 56 52 56 63 64 64 65 67 72 76 75 74 78 82 81 73 64 66 72 75 75 71 66 63 60 59 58 58 58 59 62 63 60 61 66 70 72 75 75 75 77 77 73 73 73 72 72 71 70 70 70 70 69 68 65 62 59 58 59 59 58
35 38 40 42 42 41 42 44 47 49 53 58 58 59 65 72 75 76 75 74 76 75 71 72 78 77 69 59 51 53 61 65 63 63 64 67 71 71 69 72 76 81 80 73 65 63 65 69 72 70 68 67 69 69 66 61 59 60 60 61 64 66 66 69 74 76 75 75 76 73 72 73 72 69 67 66 67 67 67 66 65 63 61 60 60 59 60 60
36 37 40 42 42 42 43 46 49 53 55 55 55 57 64 70 73 76 76 73 74 78 75 70 71 74 71 63 55 51 56 64 64 63 65 64 65 68 71 69 69 75 79 77 72 67 64 65 68 68 68 68 70 71 67 63 59 58 59 60 61 60 60 64 68 71 73 74 73 73 72 71 69 68 65 64 65 66 64 61 60 59 58 59 59 59 59 59
35 37 38 40 42 43 45 48 51 55 56 52 51 54 61 68 73 76 75 73 73 76 76 74 70 69 68 64 59 52 50 59 64 62 64 66 65 68 74 71 66 68 73 74 73 69 66 67 67 67 67 66 66 66 63 61 58 56 55 55 54 53 55 60 66 68 69 71 70 70 71 68 66 65 64 62 61 61 60 57 55 56 56 57 59 59 59 59
34 35 36 38 41 44 47 50 51 53 54 52 52 54 58 66 73 76 75 72 72 73 72 74 74 72 68 63 59 53 47 52 60 61 62 67 67 67 72 74 69 65 68 72 69 62 60 64 65 65 67 65 64 64 62 60 58 56 57 56 54 55 55 56 61 63 64 67 66 65 67 66 64 63 63 61 59 56 57 56 54 54 55 57 59 59 59 59
34 35 36 38 41 44 47 50 51 51 52 52 52 53 58 64 69 75 77 72 71 74 70 69 76 78 72 64 58 52 46 46 54 59 58 61 66 68 69 72 74 71 70 72 70 61 56 59 57 56 60 64 65 66 65 63 62 62 63 61 59 61 59 56 56 55 56 59 58 58 61 59 57 58 57 57 55 52 51 51 52 53 54 56 58 58 57 58
33 35 36 39 42 43 45 47 49 50 51 51 51 53 58 65 67 70 75 72 71 76 73 67 72 80 77 68 60 52 44 42 48 55 57 57 62 67 67 70 75 77 75 76 76 71 62 56 53 51 54 59 63 66 66 65 65 64 63 60 59 60 59 60 60 57 57 57 52 54 56 51 48 50 49 49 49 48 49 50 51 54 54 55 57 57 57 57
32 34 36 38 40 42 42 43 46 47 48 50 52 53 57 65 67 68 71 71 69 73 76 69 66 74 79 75 65 57 49 43 44 50 56 59 61 63 64 66 72 78 79 77 78 79 73 66 61 57 54 53 55 59 60 59 60 62 61 58 57 57 58 60 61 60 61 59 54 55 55 47 43 45 44 44 45 46 47 48 50 53 54 55 57 57 58 58
31 34 37 38 39 40 40 41 44 46 47 49 51 53 56 62 67 68 69 70 68 66 73 75 67 65 75 79 74 66 56 47 43 43 49 56 60 61 62 63 67 73 79 80 79 80 79 77 75 70 63 56 51 52 53 54 56 58 58 56 55 55 56 58 61 63 64 62 61 60 54 47 44 42 42 45 46 45 46 45 45 49 52 53 54 55 56 58
31 33 37 38 38 40 41 41 43 45 46 47 50 52 55 58 63 67 69 70 68 62 63 73 74 67 70 77 79 75 64 51 44 39 41 50 56 59 61 63 65 69 75 79 81 81 81 81 79 77 74 69 63 59 58 57 56 54 53 54 54 55 56 57 59 61 59 60 62 59 53 51 46 40 42 48 48 47 46 44 43 44 45 48 49 50 50 52
31 33 37 39 38 38 39 39 39 42 44 46 49 51 53 56 60 66 69 68 69 65 56 59 70 73 72 72 76 78 71 58 48 42 41 46 52 57 60 62 64 67 71 75 79 80 82 83 82 80 78 75 72 70 69 67 65 62 59 58 56 56 57 58 58 57 56 58 59 54 52 53 47 42 45 48 49 49 48 45 44 44 43 45 47 48 48 49
30 32 35 39 40 37 35 36 37 39 43 45 49 51 51 54 59 65 68 65 66 69 62 55 58 66 73 74 73 75 75 66 54 45 41 43 47 53 58 61 62 63 66 72 75 77 79 81 81 81 80 78 75 72 71 71 71 70 67 64 61 60 59 57 55 54 55 58 59 55 54 54 49 45 46 46 46 48 49 49 49 49 49 49 51 52 52 51
27 30 33 37 40 37 34 37 39 40 42 45 48 50 51 53 57 63 68 66 64 68 68 62 56 54 62 72 74 76 78 71 56 44 39 40 43 45 50 54 56 59 63 67 70 74 77 77 78 78 79 80 79 76 75 74 73 72 70 67 65 64 63 61 59 56 55 55 56 55 57 56 49 45 45 45 45 47 47 48 50 52 53 54 55 57 57 56
25 28 32 35 39 39 35 36 38 39 41 44 47 49 50 53 56 61 67 68 64 64 66 64 57 48 49 62 72 78 80 74 62 49 40 39 39 39 43 47 49 53 58 61 64 68 72 74 75 75 76 79 80 79 80 80 79 78 77 74 72 70 69 68 68 67 65 62 58 58 59 55 48 46 48 49 49 49 49 51 52 53 54 56 57 58 58 58
26 28 31 34 38 41 39 37 37 39 39 40 44 47 48 51 54 58 65 69 66 63 63 62 57 50 47 53 64 74 78 75 68 57 46 42 43 42 43 46 48 50 53 55 58 60 62 66 68 70 72 74 75 77 79 81 84 87 86 83 79 76 75 74 73 73 72 70 68 67 66 59 54 55 56 53 52 53 55 57 56 55 55 56 57 57 57 57
Wind_Direction
228 227 228 228 227 227 226 225 225 226 226 226 224 223 223 223 223 224 223 219 216 219 223 228 229 227 226 226 226 227 228 229 227 226 226 224 222 223 226 228 229 232 234 235 235 235 236 235 234 233 233 233 234 234 233 233 233 233 234 234 233 233 237 238 236 236 235 234 236 238 241 244 243 239 239 240 240 239 235 227 219 220 226 232 233 239 246 249
228 227 227 227 228 227 226 226 225 225 225 226 225 224 223 223 223 223 223 220 217 218 220 223 227 229 228 227 226 226 227 229 229 228 226 222 221 221 224 227 228 230 233 234 234 235 235 236 235 234 234 234 234 234 233 233 233 234 235 235 232 233 237 238 236 235 234 233 235 238 241 243 243 240 238 240 241 241 240 234 228 223 225 231 236 241 248 255
229 227 226 226 227 227 227 226 225 225 225 225 226 225 224 223 223 223 223 222 220 221 221 221 223 227 229 230 229 227 228 229 229 229 227 222 220 221 222 225 227 229 232 233 233 234 235 236 236 235 235 235 234 234 234 233 233 234 235 235 234 234 237 238 237 235 233 233 235 238 240 242 243 240 238 239 241 242 243 240 236 231 228 230 234 239 245 253
229 228 227 226 226 227 227 226 225 225 225 225 225 225 225 223 223 223 223 223 222 222 222 221 219 220 223 226 230 230 229 230 230 229 227 223 221 221 222 224 226 228 231 232 233 234 235 236 238 237 237 236 235 234 235 234 234 235 234 235 236 238 239 238 238 235 234 236 236 238 240 241 242 240 238 238 240 243 245 245 242 239 236 235 235 237 242 247
228 228 227 226 225 226 227 227 226 225 225 225 225 225 225 224 223 223 223 223 223 222 222 220 216 216 216 217 224 229 230 231 230 228 227 224 221 221 222 223 224 226 229 231 232 233 235 236 237 238 238 237 236 234 235 235 235 237 236 236 237 239 240 238 238 236 235 238 238 238 238 239 239 239 238 237 240 241 243 247 246 245 243 241 240 239 241 245
227 227 227 226 225 225 226 227 226 225 225 225 225 225 224 225 224 223 223 223 223 222 221 220 215 213 214 215 218 222 227 231 230 228 227 225 221 221 222 223 223 225 227 229 231 232 234 236 236 238 239 238 238 235 235 236 235 237 236 237 237 238 241 239 239 238 235 237 238 237 237 238 237 236 237 237 240 238 238 245 246 248 247 245 245 243 242 244
227 227 227 226 225 224 225 226 226 226 225 225 225 225 225 224 224 224 224 223 223 222 221 220 217 214 213 215 217 217 221 229 230 227 225 224 221 221 222 223 223 224 226 227 230 232 233 235 236 238 239 239 240 238 236 235 234 237 237 237 238 239 242 241 240 240 237 236 237 237 236 236 235 234 236 238 241 238 237 244 245 246 248 247 246 244 243 243
228 227 226 226 225 224 224 225 226 226 225 225 225 225 225 225 224 224 224 224 223 222 222 221 219 217 215 215 217 216 218 225 230 229 224 222 221 220 221 223 223 224 226 227 229 231 232 235 236 238 239 240 242 240 239 237 234 237 238 239 240 241 244 243 241 240 239 238 236 236 235 235 234 233 233 236 243 241 237 244 244 243 245 246 247 246 246 245
228 227 227 225 225 224 223 224 225 226 225 225 225 225 225 226 225 224 224 224 224 223 222 222 221 220 217 217 218 219 220 222 227 230 226 223 221 221 221 223 224 224 225 226 228 229 231 233 234 236 238 239 241 240 240 239 236 237 238 239 239 241 243 243 243 240 238 238 237 236 235 234 234 232 231 234 241 241 238 242 244 244 244 246 248 249 250 249
228 228 227 226 225 224 223 223 224 225 226 225 225 225 225 226 226 225 225 225 225 224 223 223 222 221 219 219 218 220 223 222 224 229 227 223 222 222 222 223 225 224 225 226 227 229 230 232 233 235 235 235 238 239 241 240 238 237 237 239 238 240 244 243 244 242 238 239 238 237 236 235 234 232 230 234 240 241 239 241 244 245 245 245 247 250 253 254
228 227 227 226 225 224 223 222 223 224 225 225 225 225 226 226 226 226 225 225 225 225 224 223 223 223 222 222 221 222 225 223 224 228 227 222 221 223 222 223 225 225 224 225 226 228 230 231 232 234 235 235 237 239 240 240 240 239 237 240 239 240 244 244 245 244 241 241 239 239 239 237 235 232 230 235 241 241 238 240 244 246 246 245 246 248 253 255
228 227 227 226 226 225 223 223 223 223 224 225 225 225 226 226 226 226 226 225 225 225 225 225 225 224 224 224 224 224 225 223 223 228 228 223 221 222 221 221 224 225 224 224 225 227 229 230 231 233 235 236 237 238 240 240 242 241 238 239 240 240 243 244 245 246 244 242 241 241 241 239 237 232 230 234 239 240 238 238 242 245 248 248 247 248 250 253
228 227 226 226 226 225 224 223 223 222 223 224 224 225 225 226 226 227 227 227 226 226 226 226 226 226 226 226 226 225 224 222 222 226 228 226 222 221 221 221 222 224 224 223 223 225 227 229 230 231 233 233 235 236 238 238 239 241 240 240 240 241 242 244 246 246 246 244 242 243 242 239 234 225 226 232 236 240 240 239 241 244 248 250 249 248 248 250
228 226 225 225 225 225 224 223 223 222 222 223 223 224 225 225 226 227 227 228 227 227 228 228 227 228 229 228 226 226 224 221 221 224 227 227 223 221 222 222 222 223 224 222 221 222 223 226 227 228 229 230 232 234 235 235 236 239 240 240 240 242 242 243 244 245 246 246 243 244 243 238 230 224 225 230 236 240 240 241 242 243 246 250 250 248 247 248
228 226 225 225 225 224 224 223 223 222 221 222 222 223 224 224 225 226 227 228 228 228 228 229 228 228 230 230 227 226 225 221 220 222 225 227 224 222 223 223 223 223 224 223 222 222 223 225 226 227 228 229 230 232 234 234 235 236 238 239 240 241 242 242 243 243 246 248 244 244 245 239 231 229 228 226 235 242 240 241 243 242 244 247 250 250 248 250
227 226 225 224 224 224 224 223 223 221 220 220 221 222 223 224 224 225 227 227 227 227 228 229 229 228 229 229 228 227 225 222 221 222 224 226 226 223 222 223 223 223 225 224 223 223 224 225 226 227 227 228 229 231 234 234 234 235 236 239 240 241 242 244 244 243 243 247 246 245 247 244 234 232 231 225 231 242 242 241 242 242 243 245 249 251 250 252
228 226 225 223 223 223 223 223 222 221 220 219 219 220 222 223 223 224 226 226 227 227 227 228 228 228 228 227 227 227 225 224 223 223 225 226 227 224 221 222 222 222 224 224 223 223 224 225 226 227 227 228 228 229 232 233 233 234 236 238 239 240 241 243 245 242 240 245 248 247 249 249 241 233 235 231 230 239 243 242 242 242 242 244 248 251 251 253
228 225 224 223 222 222 221 222 222 221 219 218 218 219 220 221 223 224 224 225 226 227 225 224 224 225 226 226 226 227 227 225 224 225 226 226 227 226 222 221 222 222 223 224 223 223 223 225 226 227 227 227 228 228 230 232 232 234 236 239 240 241 242 243 246 245 241 245 251 251 251 252 248 237 236 237 234 238 241 241 242 242 243 245 247 250 251 252
226 224 223 223 222 221 220 220 220 220 219 217 217 217 218 218 220 222 222 222 223 223 221 220 221 223 225 225 225 227 227 227 225 224 225 225 226 227 226 222 221 221 222 222 223 222 223 224 225 226 226 227 229 231 233 234 235 236 237 240 241 243 244 245 248 249 245 246 251 253 253 253 251 243 237 240 239 239 241 241 242 243 244 246 247 247 249 251
224 223 222 222 221 221 220 219 219 219 218 217 215 216 216 214 216 218 217 219 221 222 222 222 222 225 226 225 225 225 226 227 225 223 223 224 224 225 226 224 223 224 223 223 224 223 223 224 224 226 228 230 232 234 235 235 236 237 237 239 239 240 243 243 246 249 246 245 247 250 252 252 252 247 239 241 242 240 241 242 243 243 244 246 246 246 247 248
224 223 222 222 222 221 220 218 218 217 217 216 214 215 216 213 215 216 215 217 219 220 222 222 223 225 225 224 224 225 225 227 227 224 222 223 223 224 225 225 224 226 226 226 226 225 224 224 225 227 230 232 233 234 235 236 236 237 237 239 239 239 243 244 244 247 246 245 246 248 250 251 252 251 243 240 244 243 241 242 245 244 242 243 244 245 246 245
224 224 223 223 223 222 220 218 217 216 216 215 214 214 214 213 215 216 217 219 219 219 219 219 222 225 225 223 223 224 224 225 227 226 222 222 222 223 225 226 225 226 228 230 229 227 226 225 226 229 230 231 232 232 234 235 236 238 238 240 241 240 243 245 245 246 247 247 247 248 249 250 251 253 248 241 243 246 245 242 245 245 243 242 242 242 243 243
224 224 224 224 222 221 219 217 217 216 214 214 214 214 212 212 214 214 217 219 219 219 219 218 219 222 224 223 223 223 224 223 225 226 224 222 222 222 224 227 227 227 228 231 233 232 231 231 232 230 228 228 231 231 232 233 234 236 236 238 240 239 240 244 245 246 245 245 247 247 248 248 249 251 251 246 243 247 250 245 242 244 244 243 241 239 241 242
224 224 224 223 221 220 218 216 216 215 214 213 213 214 212 211 213 214 216 219 218 217 219 219 219 220 222 223 223 222 224 224 224 225 225 223 223 222 223 226 229 228 227 229 232 236 237 238 235 229 227 228 230 231 231 231 232 234 234 235 237 238 239 242 244 246 245 244 246 248 248 247 247 249 250 250 247 246 250 249 243 244 245 244 242 240 240 241
222 223 222 222 221 219 217 216 214 213 215 213 212 212 211 209 211 213 216 219 218 215 215 217 218 219 220 221 220 219 221 223 223 223 224 224 222 221 221 223 226 229 229 229 232 235 237 236 231 228 229 229 229 230 231 231 232 234 235 235 236 238 240 241 243 246 246 246 245 246 248 246 245 247 249 250 249 247 250 251 247 245 245 244 243 242 242 241
220 221 221 220 220 217 217 216 212 211 214 212 211 211 210 208 208 210 214 218 218 215 213 213 214 216 218 219 218 216 217 220 220 220 221 222 221 220 219 220 224 229 232 234 236 237 236 234 231 229 228 228 227 228 230 231 232 235 237 237 237 238 240 242 244 246 247 247 246 244 246 247 244 245 247 249 249 248 250 252 251 248 247 246 244 243 243 242
218 219 218 218 218 217 217 215 212 212 212 211 210 209 208 208 207 208 212 218 218 215 212 212 213 214 216 219 219 218 218 218 218 218 218 220 220 219 219 219 222 226 229 230 231 234 235 233 231 229 227 227 226 227 229 230 231 234 236 237 236 236 239 242 242 244 244 245 246 244 245 247 246 243 245 248 249 248 249 252 253 252 251 248 246 244 244 243
215 215 215 215 216 217 214 211 213 213 210 210 210 208 206 206 205 206 211 217 219 215 211 212 213 213 215 217 218 220 220 218 219 218 216 219 221 220 219 218 218 222 225 225 225 230 234 233 231 231 229 228 228 228 229 230 230 232 234 235 235 235 236 240 241 242 244 244 246 245 245 247 246 244 244 246 248 248 248 251 252 252 253 252 249 247 245 244
213 213 213 213 214 214 211 209 211 210 207 208 208 205 204 204 204 206 211 218 220 216 212 211 212 212 214 216 217 220 221 218 219 219 215 217 220 220 220 218 217 218 222 225 226 230 231 230 230 230 230 230 230 229 228 229 230 232 233 234 235 235 235 238 241 243 245 245 244 244 246 248 247 246 246 246 245 246 247 249 250 251 253 254 251 249 248 247
213 212 211 211 212 211 210 209 209 206 204 206 205 202 201 202 203 204 211 219 219 215 212 210 211 213 214 215 216 218 220 218 218 217 216 218 219 219 219 218 217 218 220 223 226 226 225 225 226 226 228 229 229 229 229 229 230 232 233 234 236 237 237 238 241 243 246 246 243 243 246 249 248 245 245 246 244 242 243 246 249 250 252 254 254 252 251 250
212 212 211 212 211 211 210 209 208 205 203 203 202 199 199 202 203 203 207 216 217 215 212 208 209 212 214 217 218 218 218 217 216 215 216 217 218 219 218 217 217 218 220 222 223 223 221 221 223 224 227 228 227 228 229 228 230 231 232 233 235 237 238 238 240 242 245 245 244 243 245 247 247 244 243 244 244 242 242 244 247 249 251 253 255 254 252 252
211 212 212 212 210 211 209 206 207 206 203 201 200 200 200 202 205 204 205 210 216 216 211 207 207 208 211 216 219 220 220 218 215 214 216 216 217 218 218 217 217 218 220 220 221 223 222 219 220 222 225 227 226 225 227 226 228 230 230 230 232 234 236 237 238 240 243 244 244 243 242 244 245 243 243 244 244 243 243 244 246 248 250 252 253 253 253 252
211 213 213 211 209 209 207 205 207 205 201 200 200 201 202 204 206 205 204 207 215 217 211 207 205 205 209 213 213 215 217 217 215 215 216 216 217 217 218 218 218 219 222 222 221 224 224 221 219 219 221 224 226 226 227 227 228 230 230 229 230 232 234 236 236 237 240 242 242 242 242 244 244 243 244 245 246 246 246 246 246 246 247 249 250 251 253 254
211 213 213 211 208 208 207 206 206 203 202 202 202 202 204 206 206 205 205 208 213 215 211 207 205 205 210 213 210 209 212 213 214 215 216 216 217 217 217 218 218 219 221 224 226 226 228 227 224 222 220 221 226 228 229 232 234 235 234 233 233 234 236 239 238 239 241 241 241 241 243 244 244 243 244 246 248 249 249 248 248 247 247 248 250 251 253 254
210 212 213 210 207 207 207 207 206 202 202 204 204 204 204 204 204 204 206 208 211 213 210 207 208 209 212 215 212 210 212 214 214 215 217 217 218 218 218 219 219 220 221 223 227 228 231 233 233 233 233 233 236 236 233 235 237 237 237 236 236 235 237 241 242 243 243 243 242 242 244 246 247 246 247 248 249 250 251 251 250 249 249 248 249 250 251 252
207 211 213 209 206 207 207 206 207 205 204 206 207 208 206 203 202 204 206 207 210 213 211 208 210 213 214 214 211 209 210 213 215 216 217 217 218 218 219 219 219 222 224 225 227 228 229 232 233 235 236 237 240 240 239 239 240 240 240 238 238 238 238 241 243 243 243 243 241 241 243 246 247 247 247 248 248 248 250 251 251 250 249 249 249 249 250 251
209 212 212 208 206 208 207 206 208 207 207 209 211 210 207 203 202 203 206 207 209 212 213 211 212 215 214 212 211 209 209 211 213 215 215 215 218 218 218 219 218 220 223 225 227 228 228 229 231 231 230 230 235 238 240 241 241 241 242 241 241 240 238 239 241 243 244 245 244 242 243 246 246 247 247 247 248 248 249 250 251 251 251 251 251 252 252 252
215 214 210 206 206 207 207 208 209 209 210 211 211 209 206 204 203 202 204 206 208 211 214 214 214 215 214 214 213 211 211 212 212 213 213 215 217 217 218 220 220 219 220 222 224 226 227 230 233 233 232 233 236 239 239 238 236 236 238 239 238 237 237 238 240 241 244 245 246 245 246 247 247 247 248 249 249 250 251 252 252 253 254 253 253 254 255 255
217 213 207 204 205 206 206 208 209 210 212 212 211 209 206 204 203 203 204 206 208 210 212 215 216 216 216 218 217 213 214 214 214 215 214 216 218 217 217 221 222 221 221 222 225 227 228 232 234 234 235 236 237 237 236 234 233 233 233 234 234 236 237 239 241 242 244 246 248 249 248 248 249 250 250 252 253 252 252 253 254 254 255 255 254 254 254 255
214 209 206 205 206 206 207 209 209 212 214 213 212 210 208 205 203 203 204 207 209 210 210 212 215 217 219 220 220 218 216 215 216 218 218 219 220 218 217 219 220 221 221 223 226 229 230 231 232 232 233 233 233 233 232 233 233 232 233 234 235 237 238 238 240 242 244 246 248 250 250 250 251 251 249 249 251 252 251 251 253 254 254 256 256 255 254 254
209 207 205 206 207 207 208 210 211 213 214 212 211 210 208 207 204 203 204 207 209 210 212 213 213 215 217 219 219 219 218 215 214 217 219 221 222 220 218 217 217 218 218 220 222 225 227 228 229 229 227 227 228 228 229 231 232 232 234 237 239 241 242 241 241 242 243 245 246 249 251 250 250 251 249 248 248 251 254 254 254 256 256 257 257 257 257 257
209 208 205 204 207 209 210 211 212 214 213 212 211 210 208 207 206 204 204 206 208 208 211 215 215 214 214 216 216 218 218 216 215 216 218 220 221 221 219 218 218 218 217 217 218 220 222 223 225 227 226 225 226 227 228 230 232 233 236 238 239 241 243 243 242 243 244 246 247 248 251 251 251 253 254 254 253 253 257 258 257 257 255 255 255 255 257 257
209 208 204 203 207 210 212 212 213 215 214 211 211 211 209 207 206 206 205 207 209 208 209 214 216 216 215 214 214 216 217 217 216 217 219 219 219 219 218 218 220 220 219 218 217 217 219 218 219 224 226 226 228 230 231 233 235 236 238 239 239 240 241 241 242 244 245 246 245 247 249 250 251 253 254 256 256 255 254 253 252 251 250 249 250 250 252 254
210 207 205 205 208 210 213 213 213 214 215 212 211 210 209 207 206 206 206 207 209 211 212 215 218 218 217 216 216 216 218 220 220 219 219 219 218 218 218 220 221 221 221 221 220 220 220 217 218 223 225 226 228 230 231 233 234 235 237 239 239 238 238 239 241 242 245 245 243 245 248 247 248 252 253 253 254 252 249 247 247 247 246 246 248 248 249 250
211 208 205 207 211 212 213 214 214 214 216 214 212 211 208 208 207 206 205 206 208 211 214 215 219 221 219 219 219 218 220 223 222 219 219 220 219 218 218 220 223 224 223 223 223 224 225 224 224 226 225 222 224 227 228 231 233 234 234 235 236 236 236 238 240 242 243 244 242 244 247 247 246 249 249 249 249 248 246 245 245 246 247 247 248 248 249 249
211 209 205 206 211 214 214 214 214 215 216 216 214 211 209 208 208 207 206 205 206 209 214 215 217 220 220 221 222 221 221 221 220 220 221 220 220 220 220 220 222 224 224 224 225 227 230 231 231 232 231 228 227 229 229 231 233 234 234 233 235 235 236 238 240 242 243 244 244 246 248 247 244 244 245 245 244 245 247 246 246 247 247 248 249 250 250 249
211 210 208 208 211 214 215 215 215 215 217 218 215 213 211 209 208 207 207 207 205 207 214 216 218 220 219 220 223 222 222 223 223 225 227 224 221 221 221 221 222 224 225 225 226 228 231 233 234 235 236 235 234 235 235 235 236 236 236 236 236 237 238 238 239 240 242 244 245 245 246 247 242 239 243 245 244 244 247 247 248 249 249 249 249 249 250 249
212 211 210 210 213 216 217 218 218 217 217 218 217 215 214 213 211 208 207 208 208 209 213 216 219 223 222 222 223 223 223 223 224 228 229 225 223 223 222 220 221 224 225 226 227 230 232 234 235 235 236 237 237 239 239 239 240 242 242 241 239 239 239 238 239 240 240 243 246 246 247 247 242 237 240 245 245 243 243 245 247 248 248 248 248 248 248 249
213 212 211 211 213 216 218 219 221 220 219 219 219 216 214 214 214 210 206 207 208 210 213 215 218 223 224 223 223 222 223 224 225 229 230 227 224 223 222 220 220 223 225 227 229 232 233 235 236 236 237 237 236 238 239 239 240 241 242 241 240 239 239 238 237 236 237 239 242 244 245 245 242 237 236 239 244 245 243 243 245 246 245 245 247 249 250 251
211 213 213 213 213 213 215 218 220 220 220 220 220 218 216 215 214 210 207 207 207 208 213 217 219 222 225 225 224 223 222 224 226 230 232 230 227 224 221 221 221 223 226 228 229 231 233 235 236 238 240 239 237 238 239 238 239 239 239 239 239 239 239 240 240 239 240 241 240 242 246 244 239 238 238 240 247 251 250 250 251 250 249 249 250 251 252 253
210 212 213 214 213 210 211 215 219 221 221 221 220 219 218 216 213 210 209 208 209 210 213 216 218 222 227 227 226 225 224 224 226 230 234 232 229 228 227 225 224 224 226 227 228 229 232 234 236 238 241 241 239 239 240 239 240 241 241 240 241 241 241 243 245 246 247 249 248 250 253 249 243 245 249 251 252 254 256 257 256 255 253 252 252 253 253 253
211 212 212 213 213 213 213 214 218 221 222 222 221 221 221 218 214 212 211 209 210 213 214 214 215 220 226 228 226 225 225 227 227 230 236 236 232 231 230 228 227 227 226 226 227 228 230 232 234 236 239 241 240 240 241 242 241 242 241 241 242 244 245 246 247 247 249 252 254 256 259 258 255 256 259 258 257 257 259 259 257 255 254 252 251 251 252 252